Home > Time Zones > World Clock > Weather > Mali > Bamako > Past weeks

Flag for Mali Weather past 2 weeks in Bamako, Mali

Now
93 °F

Passing clouds.


Feels Like: 89 °F
Forecast: 72 / 96 °F
Wind: 9 mph from Northeast

Location: Bamako / Senou

Current Time: Mar 29, 2015 at 1:54:10 PM

Latest Report: Mar 29, 2015 at 1:30 PM


Visibility: N/A

Pressure: 29.95 "Hg

Humidity: 8%

Dew point: 23 °F

Location of BamakoLocation

Historic Weather in Bamako — Graph

°F

Bamako temperature yesterday

Maximum temperature yesterday: 100 °F (at 2:30 PM)
Minimum temperature yesterday: 72 °F (at 6:30 AM)
Average temperature yesterday: 87 °F

Past Weeks' High & Low Weather Summary

 TemperatureHumidityPressure
High102 °F (Mar 15, 4:00 PM)50% (Mar 21, 5:30 AM)30.07 "Hg (Mar 21, 5:30 AM)
Low72 °F (Mar 15, 4:00 AM)6% (Mar 14, 4:30 PM)29.74 "Hg (Mar 20, 3:00 PM)
Average88 °F18%29.89 "Hg
* Reported Mar 14 12:00 Noon — Mar 29 12:30 PM, Bamako, Weather by CustomWeather, © 2015

Note: Actual official high and low records may vary slightly from our data, if they occured in-between our weather recording intervals... More about our weather records

Advertising

Bamako weather history for previous 24 hours

 ConditionsComfort  
Time TempWeatherWind HumidityBarometerVisibility
12:30 PM
Sun, Mar 29
91 °FPassing clouds.14 mph9%29.98 "HgN/A
12:00 PM90 °FPassing clouds.13 mph9%30.01 "HgN/A
11:30 AM88 °FPassing clouds.12 mph9%30.01 "HgN/A
9:30 AM82 °FSunny.15 mph12%30.04 "Hg10 mi
9:00 AM81 °FPassing clouds.14 mph13%30.04 "HgN/A
8:30 AM77 °FPassing clouds.13 mph14%30.04 "HgN/A
8:00 AM75 °FSunny.15 mph15%30.01 "Hg10 mi
7:30 AM75 °FPassing clouds.12 mph15%30.01 "HgN/A
7:00 AM73 °FSunny.8 mph16%30.01 "Hg10 mi
6:30 AM73 °FPassing clouds.8 mph16%30.01 "HgN/A
6:00 AM73 °FClear.7 mph15%29.98 "Hg10 mi
5:30 AM75 °FPassing clouds.8 mph15%29.98 "HgN/A
5:00 AM75 °FClear.8 mph14%29.98 "Hg10 mi
4:30 AM75 °FClear.8 mph13%29.98 "Hg10 mi
4:00 AM75 °FClear.9 mph13%29.98 "Hg10 mi
3:30 AM77 °FClear.8 mph12%29.98 "Hg10 mi
3:00 AM77 °FClear.9 mph12%29.98 "Hg10 mi
2:00 AM79 °FClear.9 mph13%30.01 "Hg10 mi
1:30 AM79 °FClear.7 mph12%30.01 "Hg10 mi
1:00 AM82 °FClear.8 mph12%30.01 "Hg10 mi
12:30 AM82 °FClear.9 mph11%30.01 "Hg10 mi
12:00 AM84 °FClear.9 mph10%30.01 "Hg10 mi
11:30 PM
Sat, Mar 28
84 °FClear.12 mph11%30.01 "Hg10 mi
11:00 PM86 °FClear.10 mph11%30.01 "Hg10 mi
10:30 PM86 °FClear.10 mph11%30.01 "Hg10 mi
10:00 PM88 °FClear.12 mph10%30.01 "Hg10 mi
9:30 PM90 °FClear.14 mph11%29.98 "Hg10 mi
9:00 PM90 °FClear.10 mph12%29.98 "Hg10 mi
8:30 PM91 °FClear.10 mph12%29.95 "Hg10 mi
8:00 PM88 °FClear.7 mph6%29.95 "Hg10 mi
7:30 PM90 °FClear.7 mph13%29.95 "Hg10 mi
7:00 PM93 °FClear.9 mph11%29.95 "Hg10 mi
6:30 PM95 °FPassing clouds.12 mph10%29.92 "HgN/A
6:00 PM97 °FPassing clouds.9 mph10%29.92 "HgN/A
5:30 PM99 °FPassing clouds.8 mph10%29.92 "HgN/A
5:00 PM99 °FSunny.13 mph9%29.92 "Hg10 mi
4:30 PM99 °FPassing clouds.10 mph9%29.92 "HgN/A
4:00 PM100 °FPassing clouds.10 mph8%29.92 "HgN/A
3:30 PM100 °FPassing clouds.13 mph8%29.92 "HgN/A
3:00 PM100 °FPassing clouds.13 mph9%29.92 "HgN/A
2:30 PM100 °FPassing clouds.10 mph8%29.95 "HgN/A
2:00 PM99 °FPassing clouds.12 mph9%29.95 "HgN/A
1:30 PM99 °FPassing clouds.10 mph8%29.98 "HgN/A
1:00 PM97 °FPassing clouds.10 mph7%30.01 "HgN/A
Weather by CustomWeather, © 2015

See weather overviewHow to use our weather pages